Главная страница
METAR-TAF:

METAR-TAF

Аэропорты :

Ситеки, Свазиленд

широта: 26-28-20S, долгота: 31-56-34E, высота над уровнем моря: 677 м

Текущие метеонаблюдения

Эта сводка был подготовлена 6 часа и 33 минут назад, в 04:00 UTC
Ветер 3 Узел от южный с порывами до 49 Узел
Температура 19°C
Влажность 100%
Давление 1016 hPa

METAR: FDST 260400Z AUTO 18003G49KT //// // ////// 19/19 Q1016

Время: 12:33 (10:33 UTC)


TAF: отсутствует

Метеонаблюдения и прогнозы для более 4000 аэропортов (сводки METAR и TAF).

Имеющиеся станции представлены на карте желтыми и красными точками.

Чтобы увидеть название станции, наведите на нее мышь.

Затем щелкните, чтобы увидеть метеонаблюдения и метеопрогнозы.

Управление картой: чтобы увеличить масштаб, щелкните зеленые кнопки с черным крестиком; чтобы уменьшить масштаб, щелкните зеленую кнопку с тире; для просмотра соседних карт щелкайте зеленые стрелки.


METAR-TAF: